VA3PPY Weather Reports


time (UTC)temp
F
wind
direction
speed
knots
gust
knots
rain 1hr
in
rain 24hr
in
rain mn
in
humidity
%
barometer
mb
20260507201509 46 335 1.7 6.1 0.00 0.00 0.00 68 1011.0
20260507200006 46 57 1.7 6.1 0.00 0.00 0.00 69 1011.0
20260507194511 46 348 0.9 5.2 0.00 0.00 0.00 75 1011.1
20260507193006 46 1 0.9 7.8 0.00 0.00 0.00 74 1011.1
20260507191507 45 349 2.6 7.0 0.00 0.00 0.00 71 1011.3
20260507190006 46 8 1.7 7.8 0.00 0.00 0.00 71 1011.3
20260507184507 46 44 2.6 6.1 0.00 0.00 0.00 74 1011.2
20260507183027 47 342 1.7 6.1 0.00 0.00 0.00 70 1011.2
20260507181507 47 310 2.6 7.0 0.00 0.00 0.00 72 1011.3
20260507180007 47 10 1.7 7.8 0.00 0.00 0.00 71 1011.1
20260507174509 47 9 1.7 7.0 0.00 0.00 0.00 68 1011.2
20260507173007 47 12 0.9 4.3 0.00 0.00 0.00 71 1011.3
20260507171508 47 358 2.6 6.1 0.00 0.00 0.00 68 1011.5
20260507170007 48 333 3.5 7.8 0.00 0.00 0.00 67 1011.6
20260507164507 48 297 2.6 7.0 0.00 0.00 0.00 71 1011.8
20260507163007 47 326 3.5 7.8 0.00 0.00 0.00 70 1012.0
20260507161508 48 309 1.7 6.1 0.00 0.00 0.00 73 1012.0
20260507160008 47 23 1.7 7.0 0.00 0.00 0.00 74 1012.2
20260507154508 47 292 2.6 5.2 0.00 0.00 0.00 74 1012.2
20260507153011 48 314 2.6 5.2 0.00 0.00 0.00 73 1012.1
20260507151508 47 348 1.7 5.2 0.00 0.00 0.00 73 1012.1
20260507150012 47 319 1.7 5.2 0.00 0.00 0.00 73 1012.0
20260507144508 46 315 1.7 5.2 0.00 0.00 0.00 73 1012.1
20260507143008 46 356 1.7 4.3 0.00 0.00 0.00 74 1012.3
20260507141508 46 333 1.7 7.0 0.00 0.00 0.00 77 1012.2
20260507140014 46 323 1.7 5.2 0.00 0.00 0.00 74 1012.4
20260507134524 46 335 2.6 4.3 0.00 0.00 0.00 73 1012.3
20260507133011 46 347 0.9 4.3 0.00 0.00 0.00 73 1012.3
20260507131517 44 3 0.9 2.6 0.00 0.00 0.00 74 1012.5
20260507130010 43 3 1.7 3.5 0.00 0.00 0.00 76 1012.5
20260507124508 43 61 0.0 3.5 0.00 0.00 0.00 75 1012.5
20260507123017 41 78 0.9 2.6 0.00 0.00 0.00 76 1012.6
20260507121509 40 78 0.0 0.9 0.00 0.00 0.00 75 1012.5
20260507120009 39 78 0.0 0.0 0.00 0.00 0.00 76 1012.4
20260507114515 38 78 0.0 0.0 0.00 0.00 0.00 76 1012.3
20260507113009 38 78 0.0 1.7 0.00 0.00 0.00 78 1012.1
20260507111518 37 78 0.0 2.6 0.00 0.00 0.00 79 1011.9
20260507110009 37 78 0.0 0.9 0.00 0.00 0.00 79 1011.6
20260507104509 36 78 0.0 1.7 0.00 0.00 0.00 79 1011.7
20260507103009 36 78 0.0 0.0 0.00 0.00 0.00 80 1011.7
20260507101517 36 78 0.0 0.0 0.00 0.00 0.00 79 1011.7
20260507100009 35 78 0.0 1.7 0.00 0.00 0.00 79 1011.7
20260507094509 35 78 0.0 0.9 0.00 0.00 0.00 79 1011.7
20260507093009 36 78 0.0 0.9 0.00 0.00 0.00 76 1011.6
20260507091511 36 78 0.0 0.0 0.00 0.00 0.00 76 1011.7
20260507090009 37 78 0.0 0.0 0.00 0.00 0.00 75 1011.9
20260507084517 37 78 0.0 0.9 0.00 0.00 0.00 75 1011.8
20260507083010 37 78 0.0 0.0 0.00 0.00 0.00 74 1011.8
20260507081513 38 78 0.0 1.7 0.00 0.00 0.00 73 1011.8
20260507080009 38 78 0.0 1.7 0.00 0.00 0.00 71 1011.8
20260507074523 39 78 0.9 2.6 0.00 0.00 0.00 72 1011.8
20260507073010 40 78 1.7 4.3 0.00 0.00 0.00 71 1011.9
20260507071510 40 78 0.9 3.5 0.00 0.00 0.00 71 1011.9
20260507070013 40 78 1.7 3.5 0.00 0.00 0.00 70 1012.2
20260507064510 41 61 1.7 5.2 0.00 0.00 0.00 73 1012.5
20260507063010 41 360 0.9 3.5 0.00 0.00 0.00 74 1012.5
20260507061512 42 360 1.7 5.2 0.00 0.00 0.00 74 1012.4
20260507060010 42 12 1.7 5.2 0.00 0.00 0.00 75 1012.5
20260507054510 43 27 1.7 7.8 0.00 0.00 0.00 75 1012.5
20260507053010 42 17 1.7 5.2 0.00 0.00 0.00 76 1012.5
20260507051510 42 347 1.7 4.3 0.00 0.00 0.00 76 1012.6
20260507050010 42 351 1.7 7.0 0.00 0.00 0.00 80 1012.7
20260507044511 42 319 0.9 6.1 0.00 0.00 0.00 82 1012.6
20260507043010 41 340 0.9 4.3 0.00 0.00 0.00 85 1012.7
20260507041512 41 311 1.7 4.3 0.00 0.00 0.00 85 1012.5
20260507040010 42 330 0.0 4.3 0.00 0.00 0.00 83 1012.5
20260507034510 42 330 0.0 0.0 0.00 0.00 0.00 81 1012.4
20260507033011 42 330 0.0 0.0 0.00 0.00 0.00 81 1012.4
20260507031512 41 330 0.0 0.0 0.00 0.00 0.00 79 1012.3
20260507030017 41 330 0.0 0.0 0.00 0.00 0.00 81 1012.5
20260507024518 41 330 0.0 0.0 0.00 0.00 0.00 78 1012.3
20260507023011 42 330 0.0 0.0 0.00 0.00 0.00 78 1012.3
20260507021511 42 330 0.0 0.0 0.00 0.00 0.00 79 1012.2
20260507020012 42 330 0.0 0.0 0.00 0.00 0.00 78 1012.2
20260507014517 42 330 0.0 0.0 0.00 0.00 0.00 78 1012.4
20260507013011 42 330 0.0 0.0 0.00 0.00 0.00 78 1012.3
20260507011525 42 330 0.0 0.0 0.00 0.00 0.00 78 1012.3
20260507010017 42 330 0.0 0.9 0.00 0.00 0.00 77 1012.4
20260507004511 42 330 0.0 0.0 0.00 0.00 0.00 78 1012.4
20260507003016 42 330 0.0 0.0 0.00 0.00 0.00 77 1012.4
20260507001511 42 330 0.0 1.7 0.00 0.00 0.00 76 1012.3
20260507000011 42 330 0.0 0.0 0.00 0.00 0.00 75 1012.1
20260506234512 42 330 0.0 1.7 0.00 0.01 0.00 76 1012.0
20260506233012 42 330 0.0 1.7 0.00 0.01 0.00 74 1012.2
20260506231512 43 330 0.0 2.6 0.00 0.01 0.00 72 1012.2
20260506230015 43 330 0.0 2.6 0.00 0.01 0.00 70 1012.3
20260506224514 44 330 1.7 4.3 0.00 0.01 0.00 69 1012.5
20260506223012 44 314 1.7 7.0 0.00 0.01 0.00 64 1012.4
20260506221512 45 359 0.9 6.1 0.00 0.01 0.00 67 1012.4
20260506220012 45 360 0.0 4.3 0.00 0.01 0.00 65 1012.5
20260506214518 44 345 0.9 7.0 0.00 0.01 0.00 64 1012.3
20260506213012 45 29 4.3 7.8 0.00 0.01 0.00 66 1012.4
20260506211512 44 330 2.6 7.8 0.00 0.01 0.00 65 1012.0
20260506210014 46 358 0.9 7.0 0.00 0.01 0.00 69 1012.3
20260506204514 43 26 3.5 7.0 0.00 0.01 0.00 68 1012.2
20260506203014 44 2 2.6 7.0 0.00 0.01 0.00 68 1012.2